[[{"header":{"parameterUnit":"m.s-1","parameterCategory":1,"la1":30.2991,"la2":30.254,"lo1":-89.0895,"lo2":-89.0444,"dy":0.0017,"dx":0.0017,"nx":28,"ny":28,"refTime":"2025-04-27T09:00:00:Z","depth":0,"parameterNumber":2,"parameterNumberName":"U-component_of_WINDS"},"data":[0,0,0,0,0,0,0,0,0,0,0,0,0,0,0,0,0,0,0,0,0,0,0,0,0,0,0,0,0,0,0,0,0,0,0,0,0,0,0,0,0,0,0,0,0,0,0,0,0,0,0,0,0,0,0,0,0,0,-1.2507,-1.2507,0,-1.254,-1.2541,-1.2541,-1.2555,-1.2555,-1.2555,-1.2555,-1.2591,-1.2592,-1.2593,0,0,0,0,0,0,0,0,0,0,0,0,0,-1.2455,-1.2456,-1.2507,-1.2507,-1.2507,-1.254,-1.2541,-1.2541,-1.2555,-1.2555,-1.2555,-1.2555,-1.259,-1.2592,-1.2593,0,0,0,0,0,0,0,0,0,0,0,0,0,-1.2482,-1.2456,-1.2506,-1.2518,-1.252,-1.254,-1.2541,-1.2541,-1.2555,-1.2555,-1.2555,-1.2555,-1.259,-1.2591,-1.2593,-1.2605,0,0,-1.2598,-1.2598,0,0,0,0,0,0,0,0,-1.2481,-1.2484,-1.2516,-1.2517,-1.2519,-1.2543,-1.2536,-1.2563,-1.2555,-1.2542,-1.2555,-1.2555,-1.2575,-1.2578,-1.2585,-1.2607,-1.2608,-1.2598,-1.2599,-1.2599,-1.26,0,0,0,0,0,0,0,-1.2479,-1.2483,-1.252,-1.2517,-1.2518,-1.2522,-1.2526,-1.2541,-1.2559,-1.2543,-1.2544,-1.2548,-1.2576,-1.2583,-1.2586,-1.2609,-1.2598,-1.2599,-1.26,-1.2601,-1.2643,-1.2643,0,0,0,0,0,0,-1.2475,-1.2481,-1.2519,-1.2521,-1.2499,-1.2523,-1.2527,-1.2536,-1.2559,-1.2562,-1.2548,-1.2548,-1.258,-1.2584,-1.2587,-1.2602,-1.2599,-1.2601,-1.2602,-1.2642,-1.2643,-1.2643,0,0,0,0,0,0,-1.2474,-1.2478,-1.2518,-1.2501,-1.2507,-1.2524,-1.2533,-1.2536,-1.2544,-1.2562,-1.2566,-1.2552,-1.258,-1.2585,-1.26,-1.2604,-1.2602,-1.2603,-1.2642,-1.2642,-1.2643,-1.2634,0,0,0,0,0,0,-1.2472,-1.2478,-1.2482,-1.2501,-1.2507,-1.253,-1.2534,-1.2537,-1.2546,-1.2547,-1.2567,-1.257,-1.2581,-1.2598,-1.2602,-1.2606,-1.2604,-1.2642,-1.2642,-1.2643,-1.2634,-1.2634,-1.2633,0,0,0,0,0,-1.247,-1.2478,-1.2482,-1.2487,-1.2513,-1.253,-1.2534,-1.2546,-1.2546,-1.2551,-1.2563,-1.2569,-1.2603,-1.2599,-1.2604,-1.2609,-1.2642,-1.2642,-1.2643,-1.2634,-1.2634,-1.2633,0,0,0,0,0,0,-1.2459,-1.2481,-1.2485,-1.25,-1.2513,-1.2532,-1.2539,-1.2545,-1.2559,-1.2559,-1.2573,-1.2578,-1.2592,-1.2602,-1.2598,-1.2622,-1.2623,-1.2624,-1.2615,-1.2615,-1.2614,-1.2612,-1.2606,0,0,0,0,0,-1.2458,-1.247,-1.2488,-1.2499,-1.2506,-1.2521,-1.2529,-1.2537,-1.2551,-1.2557,-1.257,-1.2584,-1.2598,-1.2607,-1.2621,-1.2635,-1.264,-1.2641,-1.2641,-1.264,-1.2641,-1.265,-1.2651,-1.2644,-1.2644,-1.2644,0,0,-1.2457,-1.247,-1.2477,-1.2498,-1.2509,-1.2521,-1.2526,-1.2538,-1.2547,-1.2559,-1.2575,-1.2585,-1.2602,-1.2617,-1.2624,-1.2625,-1.2644,-1.2641,-1.2641,-1.2642,-1.2651,-1.2651,-1.2652,-1.2644,-1.2644,-1.2644,0,0,-1.2461,-1.2472,-1.2482,-1.2493,-1.251,-1.252,-1.2522,-1.2541,-1.2548,-1.2564,-1.2573,-1.2584,-1.2607,-1.2619,-1.2628,-1.2636,-1.2642,-1.264,-1.2639,-1.2648,-1.2648,-1.2649,-1.2652,-1.2653,-1.2641,-1.2641,-1.2641,0,-1.2457,-1.2475,-1.2487,-1.2499,-1.2508,-1.2518,-1.2529,-1.254,-1.256,-1.2566,-1.2567,-1.2597,-1.2609,-1.2627,-1.2629,-1.2636,-1.2639,-1.2638,-1.2647,-1.2648,-1.2648,-1.2651,-1.2652,-1.2641,-1.2641,-1.2641,-1.2641,0,-1.247,-1.2482,-1.2488,-1.2507,-1.2517,-1.2528,-1.2543,-1.2551,-1.2558,-1.2568,-1.2585,-1.2599,-1.2616,-1.2621,-1.2628,-1.264,-1.2641,-1.2644,-1.2646,-1.2648,-1.2651,-1.2653,-1.264,-1.264,-1.264,-1.264,0,0,-1.2467,-1.2492,-1.2495,-1.2503,-1.2522,-1.2533,-1.2545,-1.2561,-1.2568,-1.2582,-1.2592,-1.2612,-1.2615,-1.2625,-1.2634,-1.2641,-1.2647,-1.2644,-1.2645,-1.2644,-1.2661,-1.2659,-1.266,-1.2651,-1.2651,-1.2652,-1.266,0,-1.2473,-1.2495,-1.2506,-1.2523,-1.2535,-1.2545,-1.2556,-1.2569,-1.2579,-1.259,-1.2602,-1.2615,-1.2618,-1.2625,-1.2632,-1.2644,-1.2651,-1.2644,-1.2662,-1.2662,-1.2657,-1.2661,-1.2658,-1.2666,-1.2661,-1.2661,-1.2662,0,-1.2484,-1.2497,-1.2515,-1.2532,-1.2538,-1.2547,-1.2563,-1.2574,-1.2589,-1.2596,-1.2607,-1.2615,-1.2629,-1.2629,-1.2649,-1.2644,-1.2652,-1.2659,-1.266,-1.2662,-1.2662,-1.2664,-1.2668,-1.2669,-1.2664,-1.2663,-1.2663,0,-1.248,-1.2502,-1.2516,-1.2523,-1.2544,-1.255,-1.256,-1.2575,-1.2584,-1.2598,-1.2604,-1.2619,-1.2628,-1.264,-1.2652,-1.2651,-1.267,-1.2672,-1.2676,-1.2676,-1.268,-1.268,-1.2686,-1.2685,-1.2685,-1.2685,-1.2685,0,-1.2486,-1.2497,-1.2515,-1.2523,-1.2535,-1.2548,-1.256,-1.257,-1.2584,-1.2595,-1.2605,-1.2615,-1.2631,-1.2643,-1.2653,-1.2667,-1.2671,-1.2677,-1.268,-1.2676,-1.2676,-1.2682,-1.2682,-1.2685,-1.2685,-1.2685,-1.2685,0,-1.2485,-1.2497,-1.2513,-1.2531,-1.2536,-1.2544,-1.256,-1.2569,-1.2579,-1.2593,-1.2597,-1.2613,-1.2628,-1.2642,-1.2662,-1.2669,-1.2683,-1.2687,-1.2678,-1.2679,-1.2683,-1.2683,-1.2694,-1.2696,-1.2693,-1.2693,-1.2693,0,-1.2488,-1.2496,-1.2515,-1.2523,-1.2532,-1.2544,-1.2553,-1.2566,-1.2575,-1.2593,-1.26,-1.2616,-1.2629,-1.2652,-1.2666,-1.2681,-1.2685,-1.2688,-1.2688,-1.2684,-1.2685,-1.2685,-1.2686,-1.2688,-1.2688,-1.2688,-1.2688,0,-1.2492,-1.2497,-1.251,-1.2524,-1.2535,-1.2547,-1.256,-1.2566,-1.2581,-1.2591,-1.2606,-1.2616,-1.2636,-1.2652,-1.2669,-1.2679,-1.2686,-1.2688,-1.269,-1.2686,-1.2681,-1.2684,-1.2678,-1.2687,-1.2687,-1.2687,-1.2688,-1.2688,-1.2493,-1.2501,-1.2515,-1.2529,-1.254,-1.2551,-1.256,-1.2571,-1.2584,-1.2601,-1.2608,-1.2624,-1.2639,-1.2662,-1.2672,-1.2685,-1.2686,-1.2689,-1.269,-1.269,-1.269,-1.2679,-1.2688,-1.2688,-1.2688,-1.2688,-1.2688,0,-1.2498,-1.2507,-1.252,-1.2537,-1.2547,-1.2553,-1.2567,-1.2576,-1.2589,-1.2602,-1.2615,-1.2632,-1.2647,-1.2662,-1.2678,-1.2685,-1.2689,-1.2689,-1.2689,-1.2691,-1.2687,-1.2684,-1.2686,-1.2686,-1.2686,-1.2686,-1.2686,-1.2686,-1.2501,-1.2515,-1.2522,-1.2541,-1.2551,-1.2566,-1.2574,-1.2585,-1.2595,-1.2614,-1.2626,-1.2636,-1.265,-1.2667,-1.2681,-1.2685,-1.2691,-1.269,-1.2695,-1.2691,-1.2691,-1.2691,-1.2688,-1.2691,-1.2691,-1.2698,-1.2698,-1.2698]},{"header":{"parameterUnit":"m.s-1","parameterCategory":1,"la1":30.2991,"la2":30.254,"lo1":-89.0895,"lo2":-89.0444,"dy":0.0017,"dx":0.0017,"nx":28,"ny":28,"refTime":"2025-04-27T09:00:00:Z","depth":0,"parameterNumber":3,"parameterNumberName":"V-component_of_WINDS"},"data":[0,0,0,0,0,0,0,0,0,0,0,0,0,0,0,0,0,0,0,0,0,0,0,0,0,0,0,0,0,0,0,0,0,0,0,0,0,0,0,0,0,0,0,0,0,0,0,0,0,0,0,0,0,0,0,0,0,0,2.0809,2.0809,0,2.0781,2.0781,2.0781,2.0748,2.0748,2.0747,2.0747,2.0717,2.0717,2.0717,0,0,0,0,0,0,0,0,0,0,0,0,0,2.0832,2.0832,2.0809,2.0809,2.0808,2.0782,2.0781,2.0781,2.0749,2.0748,2.0747,2.0747,2.0717,2.0717,2.0717,0,0,0,0,0,0,0,0,0,0,0,0,0,2.0815,2.0832,2.0809,2.0789,2.0787,2.0782,2.0781,2.0781,2.0749,2.0748,2.0747,2.0746,2.0717,2.0717,2.0717,2.0728,0,0,2.0715,2.0715,0,0,0,0,0,0,0,0,2.0816,2.0814,2.0792,2.079,2.0788,2.0768,2.0778,2.0763,2.0749,2.0763,2.0747,2.0746,2.0735,2.0733,2.0729,2.0727,2.0725,2.0715,2.0715,2.0714,2.0714,0,0,0,0,0,0,0,2.0817,2.0815,2.0798,2.0792,2.0789,2.0781,2.0778,2.0775,2.0753,2.0762,2.0759,2.0757,2.0733,2.073,2.0728,2.0725,2.0715,2.0714,2.0714,2.0714,2.073,2.073,0,0,0,0,0,0,2.0822,2.0817,2.0799,2.0797,2.0801,2.0781,2.0778,2.0775,2.0753,2.0749,2.0757,2.0755,2.0731,2.0729,2.0727,2.0738,2.0714,2.0714,2.0714,2.0729,2.073,2.0731,0,0,0,0,0,0,2.0822,2.0821,2.08,2.0806,2.0803,2.0782,2.0779,2.0775,2.0771,2.075,2.0746,2.0758,2.073,2.0728,2.0728,2.0737,2.0714,2.0713,2.0728,2.0729,2.073,2.0761,0,0,0,0,0,0,2.0823,2.0821,2.0826,2.0807,2.0803,2.0802,2.0779,2.0775,2.077,2.0768,2.0749,2.0745,2.0729,2.0729,2.0727,2.0736,2.0713,2.0727,2.0729,2.073,2.0759,2.0763,2.0767,0,0,0,0,0,2.0824,2.0835,2.0826,2.0824,2.0808,2.0803,2.0801,2.0782,2.0771,2.0775,2.0762,2.0746,2.0736,2.0729,2.0727,2.0735,2.0727,2.0728,2.073,2.0758,2.0763,2.0767,0,0,0,0,0,0,2.0855,2.0832,2.0822,2.0827,2.0817,2.0797,2.0802,2.0788,2.0781,2.0778,2.0756,2.0752,2.0754,2.0745,2.0738,2.0745,2.0729,2.073,2.0751,2.0755,2.0759,2.0761,2.0712,0,0,0,0,0,2.0863,2.0861,2.0841,2.0848,2.0843,2.0824,2.0821,2.0808,2.0796,2.0791,2.0778,2.0767,2.0761,2.0758,2.0752,2.0758,2.0753,2.0763,2.0767,2.077,2.0771,2.0772,2.0776,2.0736,2.0736,2.0736,0,0,2.0878,2.0866,2.0866,2.0853,2.0844,2.0842,2.082,2.0819,2.0817,2.0791,2.079,2.078,2.0766,2.077,2.077,2.0762,2.0781,2.0772,2.0774,2.0774,2.0774,2.0778,2.0782,2.0737,2.0737,2.0737,0,0,2.0905,2.0896,2.09,2.0891,2.0878,2.0864,2.0866,2.0848,2.084,2.0839,2.0819,2.0816,2.0808,2.0798,2.0792,2.0816,2.08,2.0814,2.0833,2.0835,2.0838,2.0841,2.0848,2.0851,2.0816,2.0816,2.0816,0,2.0926,2.0922,2.0904,2.0904,2.0898,2.0876,2.0879,2.0871,2.0856,2.0853,2.0844,2.0832,2.0821,2.0821,2.0827,2.0823,2.0823,2.0816,2.0839,2.0842,2.0844,2.0851,2.0853,2.0817,2.0817,2.0817,2.0817,0,2.0948,2.0946,2.0951,2.0937,2.0933,2.0934,2.0915,2.0913,2.09,2.0888,2.0887,2.0873,2.0863,2.0863,2.085,2.0861,2.0856,2.0844,2.0827,2.085,2.0856,2.0858,2.082,2.0819,2.0819,2.0818,0,0,2.0993,2.0969,2.0971,2.0964,2.0948,2.0945,2.0946,2.0937,2.0935,2.0925,2.0924,2.0917,2.0905,2.0899,2.0885,2.0887,2.0905,2.0874,2.0873,2.0879,2.0915,2.0924,2.0927,2.0895,2.0896,2.0896,2.0915,0,2.1016,2.1016,2.0999,2.1003,2.1001,2.0979,2.0979,2.0969,2.0957,2.0953,2.094,2.0935,2.092,2.0916,2.0917,2.0903,2.0912,2.0901,2.0893,2.0893,2.0896,2.093,2.094,2.0959,2.0918,2.0918,2.0918,0,2.1043,2.1035,2.1039,2.1022,2.102,2.1021,2.1011,2.1007,2.0994,2.0986,2.0979,2.0963,2.0961,2.0947,2.0943,2.0937,2.0932,2.0925,2.0925,2.0923,2.0906,2.0928,2.0964,2.0967,2.0922,2.0922,2.0921,0,2.1074,2.1065,2.1066,2.1061,2.1041,2.1042,2.1033,2.102,2.1016,2.1007,2.1003,2.0994,2.0989,2.0982,2.0964,2.0955,2.0962,2.0946,2.0954,2.0955,2.0956,2.0956,2.0992,2.0955,2.0955,2.0955,2.0955,0,2.1101,2.1104,2.1079,2.108,2.1083,2.1063,2.1066,2.1055,2.1044,2.1041,2.1022,2.102,2.0997,2.0992,2.0978,2.0977,2.0975,2.0967,2.0963,2.0969,2.0969,2.0965,2.0962,2.0956,2.0956,2.0955,2.0955,0,2.1136,2.1119,2.1119,2.1101,2.1096,2.1099,2.1082,2.1082,2.1069,2.1066,2.1064,2.1044,2.1038,2.1019,2.1008,2.0998,2.1001,2.0994,2.1005,2.1002,2.1011,2.101,2.1044,2.1047,2.101,2.101,2.101,0,2.1153,2.1155,2.1137,2.1134,2.1127,2.1123,2.1118,2.1099,2.1095,2.108,2.1081,2.1073,2.1065,2.1055,2.1039,2.103,2.1022,2.1035,2.102,2.1025,2.1021,2.1021,2.102,2.1037,2.1038,2.1038,2.1039,0,2.1186,2.1178,2.1172,2.1164,2.1159,2.1151,2.1142,2.1141,2.1119,2.1115,2.1108,2.1102,2.109,2.1082,2.107,2.1061,2.1046,2.1043,2.1044,2.1049,2.1055,2.1051,2.1012,2.1042,2.1042,2.1042,2.1042,2.1041,2.1212,2.1213,2.12,2.1194,2.1185,2.1177,2.1176,2.1163,2.1157,2.1146,2.1135,2.1129,2.1116,2.1099,2.109,2.1084,2.1077,2.1079,2.1079,2.1079,2.1081,2.1057,2.1082,2.1082,2.1082,2.1082,2.1082,0,2.1243,2.1234,2.1229,2.1217,2.1212,2.1199,2.1189,2.1185,2.118,2.117,2.1162,2.1154,2.1146,2.1129,2.1119,2.1118,2.111,2.1116,2.1115,2.1113,2.1089,2.1089,2.1122,2.1122,2.1122,2.1122,2.1122,2.1122,2.1258,2.1258,2.1249,2.1244,2.1234,2.1229,2.1224,2.1216,2.1207,2.1199,2.1192,2.1182,2.1168,2.1157,2.1148,2.1143,2.114,2.1147,2.114,2.1118,2.1115,2.1111,2.111,2.1147,2.1147,2.1164,2.1164,2.1164]}]]